Miscellaneous Local Product
Issued by NWS Hastings, NE

Home | Current Version | Previous Version | Graphics & Text | Print | Product List | Glossary On
Versions: 1 2 3 4 5 6 7 8 9 10 11 12 13 14 15 16 17 18 19 20 21 22 23 24 25 26 27 28 29 30 31 32 33 34 35 36 37 38 39 40 41 42 43 44 45 46 47 48 49 50
000
AXUS43 KGID 241602
MISGRI

GID CWA HOURLY WEATHER ROUNDUP
NATIONAL WEATHER SERVICE HASTINGS NE
1000 AM CST SAT JAN 24 2015

NOTE: "FAIR" INDICATES FEW OR NO CLOUDS BELOW 12,000 FEET WITH NO
SIGNIFICANT WEATHER AND/OR OBSTRUCTIONS TO VISIBILITY.

...SOUTH CENTRAL NEBRASKA...

CITY           SKY/WX    TMP DP  RH WIND       PRES   REMARKS
GRAND ISLAND   SUNNY     41  29  62 W14       29.92F
HASTINGS       SUNNY     40  28  62 W16       29.92F WCI  31
KEARNEY        SUNNY     41  27  56 W16G22    29.94F
ORD            PTSUNNY   39  27  62 W10       29.89F WCI  32
YORK           SUNNY     37  30  75 W16       29.91F WCI  28
AURORA         SUNNY     40  29  67 W14       29.91F WCI  32
LEXINGTON      PTSUNNY   34  29  83 W8        29.96F WCI  27
HOLDREGE       MOSUNNY   36  27  69 W13       29.97S WCI  27
HEBRON         SUNNY     37  28  69 W10       29.95F WCI  29

...NEBRASKA PANHANDLE...

CITY           SKY/WX    TMP DP  RH WIND       PRES   REMARKS
CHADRON        CLOUDY    37  27  67 W12       29.93F WCI  29
ALLIANCE       CLOUDY    35  27  72 W8        29.95F WCI  29
SCOTTSBLUFF    CLOUDY    41  25  53 W15       29.98F
SIDNEY         CLOUDY    37  19  48 W16       30.00F WCI  28

...WESTERN AND NORTH CENTRAL NEBRASKA...

CITY           SKY/WX    TMP DP  RH WIND       PRES   REMARKS
VALENTINE      CLOUDY    38  28  67 W8        29.85F WCI  32
AINSWORTH      CLOUDY    38  28  66 W10       29.85F WCI  31
ONEILL         CLOUDY    39  31  73 W12       29.83F WCI  32
BROKEN BOW     CLOUDY    36  28  73 W12       29.91F WCI  28
IMPERIAL       CLOUDY    35  24  64 W9        30.00F WCI  28
NORTH PLATTE   CLOUDY    35  26  69 W13       29.96F WCI  26
MCCOOK         MOSUNNY   37  26  64 W10       30.00F WCI  30

...EASTERN NEBRASKA...

CITY           SKY/WX    TMP DP  RH WIND       PRES   REMARKS
NORFOLK        MOSUNNY   42  30  62 W12       29.82F
SO SIOUX CITY  SUNNY     40  31  70 W6        29.81F
TEKAMAH        SUNNY     40  32  73 W7        29.84F
COLUMBUS       SUNNY     37  28  70 W13       29.88F WCI  29
ALBION         MOSUNNY   41  29  64 W8        29.86F
OMAHA EPPLEY   PTSUNNY   40  30  67 CALM      29.86F
OFFUTT AFB     SUNNY     38  31  74 W8        29.86F WCI  32
MILLARD        SUNNY     38  31  76 W3        29.87F
LINCOLN        SUNNY     39  29  67 W8        29.91F WCI  33
NEBRASKA CITY  SUNNY     38  28  67 W14       29.88S WCI  30
BEATRICE       SUNNY     36  30  79 W9        29.93S WCI  29
FALLS CITY     SUNNY     41  30  65 W12       29.91F

...NORTHERN KANSAS...

CITY           SKY/WX    TMP DP  RH WIND       PRES   REMARKS
GOODLAND       SUNNY     41  27  57 W10       30.04F
HILL CITY      SUNNY     42  27  55 W12       30.03F
NORTON         SUNNY     43  25  49 W12       29.99
PHILLIPSBURG   SUNNY     45  28  53 W10       30.00F
SMITH CENTER   SUNNY     36  28  75 W7        30.00F WCI  30
BELOIT         SUNNY     39  28  65 W13       30.00S WCI  32
HAYS           SUNNY     41  23  48 W12       30.05S
RUSSELL        SUNNY     40  29  64 W14       30.02F WCI  32
CONCORDIA      SUNNY     40  30  67 W15       29.97F WCI  32
SALINA         SUNNY     43  29  57 W10       30.01F
TOPEKA         SUNNY     40  29  64 W9        29.97F WCI  34



USA.gov is the U.S. government's official web portal to all federal, state and local government web resources and services.